GFSMA_700_rhum_015.txt.gz
RH
44 52 62 65 65 66 66 66 66 67 70 69 67 62 53 51 50 37 30 28 26 25 26 25 24 24 25 30 41 46 47 44 39 37 36 33 31 37 64 83 90 89 88
52 62 66 68 66 64 65 67 71 64 46 50 41 58 70 67 58 45 36 30 29 26 26 24 24 24 22 22 26 31 42 47 48 45 42 39 36 39 44 71 94 94 97
57 65 68 69 60 65 70 75 75 59 44 40 37 35 42 60 56 62 46 37 32 30 29 27 24 24 23 25 24 21 25 32 42 47 47 47 46 41 39 42 78 94 92
67 72 76 79 79 77 77 82 72 56 51 52 51 46 40 37 35 34 40 36 34 38 41 38 31 27 27 25 24 30 28 22 29 34 42 48 50 50 45 39 88 97 99
88 100 92 88 94 87 84 82 70 63 58 59 58 56 56 52 44 37 34 34 35 35 41 46 45 37 29 24 25 28 29 32 24 26 32 37 44 49 48 44 54 99 100
100 100 100 95 92 87 75 71 68 65 63 64 63 62 58 59 57 51 46 42 39 38 39 42 45 46 40 29 22 22 21 25 32 31 23 28 35 43 48 48 44 60 88
100 89 85 83 81 76 75 68 58 62 68 66 61 58 62 62 59 59 55 51 48 44 41 40 40 39 40 42 30 22 21 18 37 38 36 31 26 36 43 48 49 46 61
90 89 85 75 63 49 42 35 52 65 69 68 62 56 50 46 53 56 54 49 43 38 34 32 31 34 36 37 40 33 22 17 17 23 44 56 43 28 35 44 48 52 48
55 54 45 44 63 73 81 60 79 90 75 67 58 46 37 30 28 26 26 23 17 12 9 9 10 13 16 20 26 30 35 23 17 16 17 39 62 57 28 35 44 48 53
37 40 59 72 98 99 86 98 96 65 47 26 16 13 12 10 8 9 10 8 7 7 7 6 6 6 6 6 7 11 20 28 23 16 16 22 36 67 65 36 38 43 47
98 98 65 99 98 99 76 52 29 28 28 23 20 17 12 10 9 10 11 13 14 21 33 22 20 15 13 11 10 10 12 12 21 20 18 25 26 37 72 65 42 40 48
63 92 54 81 58 62 50 39 36 34 28 21 19 18 15 13 26 61 80 54 85 37 63 59 68 64 64 52 37 32 30 23 14 16 20 21 39 54 45 67 63 50 54
66 29 22 33 73 74 59 62 58 35 26 23 19 16 23 36 53 77 93 87 92 67 63 53 79 83 82 71 57 52 46 44 42 24 15 20 43 100 95 69 68 63 58
10 17 60 85 85 87 96 74 56 39 28 28 25 36 32 33 33 33 99 97 93 93 82 88 92 94 96 90 82 69 58 50 52 54 36 20 32 83 97 94 96 82 65
11 95 98 98 98 97 99 100 37 33 27 32 17 16 18 18 21 22 36 80 96 90 78 77 98 100 100 100 97 85 76 60 51 60 64 48 52 100 100 100 99 95 80
47 62 65 89 95 98 93 56 46 40 45 19 19 31 24 14 18 25 32 37 50 58 62 76 71 96 100 100 97 93 80 68 57 52 61 67 59 46 85 100 100 100 96
84 99 98 96 92 96 94 64 59 70 28 20 28 41 41 32 33 36 39 40 42 48 42 26 34 60 75 89 96 100 87 66 59 53 65 86 94 67 82 100 97 97 97
63 100 95 79 90 95 70 72 79 78 23 22 35 48 43 38 34 35 36 37 39 43 52 45 39 22 22 25 39 83 94 74 60 52 46 91 97 98 97 94 97 97 96
27 46 59 88 92 89 97 98 72 24 31 32 43 44 41 38 41 49 55 57 59 59 57 56 53 48 42 33 31 30 32 73 71 60 50 56 96 98 97 98 98 89 96
42 50 92 84 94 100 100 85 28 36 44 43 46 45 44 50 57 64 68 70 70 69 70 73 63 65 62 49 39 34 31 45 45 48 49 54 94 97 97 98 97 98 95
47 77 85 88 100 97 100 42 36 41 40 43 43 44 54 61 71 76 78 75 76 79 85 84 77 74 73 66 54 48 38 34 35 41 52 77 74 96 95 96 100 96 97
49 58 92 88 86 100 88 39 32 33 39 41 41 50 65 73 79 86 91 92 93 86 90 96 85 80 87 80 72 64 56 41 22 24 47 71 77 90 95 98 96 96 97
56 73 70 81 96 98 52 26 27 38 40 38 46 62 72 81 86 93 100 100 99 100 100 100 99 82 85 100 81 64 56 48 34 26 34 40 52 43 66 96 93 98 95
66 78 86 99 100 77 26 24 32 35 36 41 55 71 82 87 91 92 95 98 100 100 100 100 100 89 71 75 77 72 63 49 38 32 34 25 27 27 25 34 54 71 92
80 94 100 100 63 25 23 31 35 36 36 42 65 84 90 89 94 96 96 98 100 100 100 99 100 91 95 66 68 64 55 51 42 40 43 27 25 24 22 21 20 24 35
92 100 95 32 26 23 28 36 42 42 35 45 73 88 92 94 97 99 99 100 100 100 100 100 100 95 85 73 67 58 57 48 42 36 38 34 26 23 21 20 20 21 25

GFSMA_700_rhum_021.txt.gz
RH
61 62 65 69 73 79 83 87 85 73 63 52 47 41 36 31 24 23 29 34 33 32 27 30 34 42 44 42 34 22 20 24 28 40 40 37 35 32 36 49 56 66 91
72 74 73 80 81 78 79 93 95 78 68 64 48 37 37 32 26 23 21 20 20 23 33 33 29 27 27 31 37 32 23 20 21 24 30 43 41 37 34 32 33 50 64
77 80 84 95 84 86 89 75 95 82 68 66 58 50 39 32 32 32 27 25 24 21 19 23 31 34 32 29 28 32 26 23 22 20 32 28 36 44 42 37 35 34 44
90 93 98 93 91 80 84 70 87 66 64 66 60 50 44 43 42 44 40 34 34 36 34 31 32 37 38 37 34 28 25 28 25 23 21 23 25 44 41 45 43 38 35
87 80 84 86 69 62 57 53 55 58 53 54 49 45 38 34 48 43 42 44 44 47 45 38 32 38 46 45 43 37 29 26 29 30 26 22 22 27 41 44 48 47 43
71 53 51 50 52 53 48 46 44 48 52 30 26 19 23 43 52 50 39 47 57 51 47 47 44 34 32 42 47 48 43 36 30 31 35 34 26 24 30 44 44 43 48
54 60 64 60 52 42 36 26 16 14 14 14 16 18 15 18 39 48 35 31 44 38 27 27 37 35 32 30 39 52 51 49 43 34 34 38 37 26 27 43 64 49 42
59 48 44 42 39 34 27 18 14 12 11 10 8 7 8 16 14 26 32 34 32 30 25 20 19 22 22 22 22 30 43 50 50 45 39 38 40 40 27 24 46 64 61
50 44 37 30 23 15 12 11 10 8 8 10 18 36 43 43 43 40 39 37 33 30 25 22 18 16 16 16 16 16 14 15 22 35 41 38 38 40 41 28 22 40 69
41 27 17 13 12 10 8 7 7 8 14 33 51 65 71 69 58 53 46 43 31 24 26 23 18 16 13 10 9 11 13 11 10 8 12 21 29 30 36 40 28 23 41
18 13 11 10 8 8 6 6 8 21 43 61 76 85 67 82 74 50 49 44 24 20 18 17 16 15 16 22 25 20 19 17 14 10 7 7 7 12 15 28 38 27 23
12 10 8 6 4 4 5 13 32 54 79 85 85 73 78 72 71 45 28 24 26 14 9 6 6 8 15 28 55 56 48 42 39 40 23 11 7 6 6 8 17 34 33
11 7 5 5 5 6 36 59 52 78 74 82 76 80 66 67 54 24 18 18 13 7 7 8 8 10 27 69 84 77 85 82 73 64 51 32 15 8 6 6 6 12 29
7 6 5 5 6 8 10 41 56 44 43 60 77 77 66 58 20 21 19 21 17 14 11 12 13 16 20 22 42 81 83 99 98 89 77 68 53 33 16 8 6 6 12
6 5 5 5 6 10 17 22 40 57 78 79 74 70 66 22 18 22 23 28 36 27 19 15 16 19 18 19 20 24 46 74 97 96 91 80 75 59 48 28 13 9 9
6 6 6 8 11 19 26 46 54 82 81 87 80 80 37 18 20 24 31 36 39 37 26 28 29 34 38 39 38 28 24 24 67 94 95 89 87 66 53 57 42 21 16
7 7 8 10 18 28 37 64 78 90 96 99 92 71 20 19 24 31 34 34 37 45 49 37 51 53 51 52 50 50 38 27 23 51 92 93 90 78 64 54 56 55 34
8 7 8 14 22 32 44 68 79 99 100 100 84 31 19 24 32 33 32 34 46 62 73 63 63 64 63 61 58 57 55 43 32 25 38 89 84 80 67 58 52 51 72
8 8 11 21 29 59 68 82 91 94 100 87 45 20 23 31 33 30 32 49 66 77 85 84 69 80 81 76 67 69 66 59 48 40 31 26 65 73 71 59 52 47 65
10 14 21 32 41 53 90 99 93 100 91 60 22 27 34 35 31 31 53 69 81 83 88 90 80 83 92 92 88 93 83 89 74 55 46 35 23 29 39 65 58 46 49
16 20 30 42 55 73 86 90 99 94 48 24 26 33 32 27 28 53 73 83 86 90 93 95 89 91 89 97 100 100 100 86 100 83 61 49 35 19 16 38 54 52 42
21 27 38 51 63 78 90 96 92 39 23 25 30 29 24 23 37 68 85 87 93 97 96 97 96 100 100 100 100 100 100 100 100 100 73 59 44 30 17 14 22 47 53
27 34 47 62 74 82 86 69 28 22 24 33 30 28 23 24 49 76 86 89 96 99 100 100 100 98 100 99 100 100 100 100 95 100 83 68 60 44 31 23 18 38 90
34 43 58 73 55 36 27 27 22 23 31 34 32 26 24 30 65 86 84 88 90 96 100 100 100 100 100 100 100 100 100 100 100 96 90 73 65 54 41 23 25 35 94
42 57 71 65 34 26 27 23 23 29 35 34 28 27 29 40 74 89 85 42 17 85 100 100 100 98 100 100 100 100 100 100 87 88 83 74 58 54 39 25 30 81 94
52 67 80 54 27 26 28 25 26 32 32 29 29 30 35 51 85 86 74 45 34 79 95 98 98 99 100 100 100 96 98 99 100 100 97 69 62 59 55 44 43 72 89

GFSMA_700_rhum_024.txt.gz
RH
60 64 70 82 87 94 85 76 73 70 34 49 43 31 28 26 21 22 24 20 19 20 20 18 17 16 22 27 31 32 38 43 40 27 22 22 32 42 36 32 35 53 63
94 88 89 89 90 88 86 81 70 60 44 42 58 37 34 32 27 23 23 23 17 18 21 22 23 19 15 15 20 29 33 32 35 35 27 23 28 27 40 42 35 36 51
99 100 100 86 78 75 86 49 50 61 46 41 41 35 33 30 26 18 20 20 25 21 28 27 25 24 19 15 16 18 26 35 34 35 33 28 28 35 38 33 44 39 34
100 97 77 66 55 48 45 40 42 41 39 35 33 24 20 17 14 14 15 14 19 31 34 21 22 36 34 28 22 18 17 25 35 34 35 34 30 29 31 42 32 38 43
90 63 48 46 44 46 48 52 50 45 37 32 18 13 12 11 10 9 9 7 8 12 21 28 21 25 33 39 37 36 31 20 24 36 36 34 36 34 29 26 31 40 38
51 47 46 51 52 49 46 44 38 25 16 13 12 11 10 8 7 5 4 4 6 5 5 7 11 13 10 26 35 32 38 37 25 30 40 39 36 38 40 33 28 30 37
55 58 61 54 46 39 22 17 15 12 11 10 8 6 4 5 5 5 5 5 8 10 11 14 12 13 16 18 24 21 17 24 35 30 34 48 45 42 40 42 36 29 36
48 46 42 34 21 17 15 13 12 9 7 6 4 3 4 12 51 77 29 25 24 22 27 32 32 29 28 27 25 22 19 17 15 21 27 37 51 50 46 43 45 38 29
49 41 27 18 16 16 11 8 6 5 4 4 4 6 11 26 26 36 76 80 53 48 42 37 35 29 26 25 24 22 19 19 17 16 19 20 35 49 50 46 43 46 39
35 22 18 18 13 9 7 5 4 4 4 5 7 18 23 30 50 67 100 100 98 53 52 41 37 26 22 20 18 16 16 14 14 13 13 16 15 24 38 43 41 41 45
25 20 18 14 10 7 5 4 4 4 14 25 35 34 35 66 93 100 100 100 100 100 100 66 21 11 12 10 10 10 12 14 15 21 16 11 14 12 14 22 27 31 37
26 19 15 9 6 5 5 5 6 21 45 41 31 34 83 100 100 100 100 100 100 55 98 98 96 86 48 15 7 7 5 8 13 21 49 83 27 16 13 10 12 14 20
20 13 9 6 5 5 6 7 8 11 19 27 38 74 98 100 100 100 100 100 100 46 60 76 98 100 100 96 26 12 10 8 20 30 52 85 90 52 27 17 10 8 8
13 9 6 6 6 6 6 8 15 24 75 71 78 88 96 100 100 100 100 100 77 45 38 80 90 92 100 100 81 15 16 16 13 44 80 93 97 87 68 39 20 12 8
10 8 6 6 6 6 10 14 28 38 85 78 88 91 90 100 100 100 100 100 99 57 27 46 67 92 83 72 49 30 30 27 17 14 39 77 88 93 88 75 54 29 16
9 7 7 6 7 7 11 19 28 63 92 75 92 94 100 100 100 100 100 100 100 94 66 73 89 100 100 80 62 50 43 38 36 25 19 25 63 82 92 87 71 56 35
8 7 7 7 8 10 14 27 59 74 75 78 98 100 99 97 87 49 61 80 100 100 100 26 71 91 82 72 67 60 56 54 57 43 31 22 23 58 84 88 80 60 53
8 8 8 9 10 13 26 61 72 79 85 97 94 99 94 71 21 27 32 34 42 61 66 59 67 71 72 69 67 67 65 66 90 100 99 65 28 26 68 88 85 69 55
8 10 10 12 15 20 34 54 97 94 100 100 100 93 56 22 27 30 27 27 38 59 77 80 72 79 79 77 72 86 96 100 92 94 96 100 72 30 26 69 81 77 60
9 12 13 15 23 30 49 59 75 94 99 96 79 29 23 29 27 26 25 33 61 79 86 89 86 86 91 100 100 100 100 100 100 100 100 98 94 36 25 28 68 71 63
12 13 15 22 32 43 56 69 86 91 89 61 25 24 29 28 28 25 27 53 79 87 90 92 91 99 100 100 100 100 100 100 100 95 99 100 100 97 84 38 28 58 61
14 15 22 31 43 49 61 59 59 44 27 24 24 30 32 28 24 24 36 76 90 88 87 92 96 100 100 100 100 100 100 100 96 100 100 100 99 100 100 100 73 36 36
17 20 29 37 49 60 53 28 24 26 23 23 28 31 28 26 24 28 56 85 83 44 19 60 97 100 100 100 100 100 100 98 99 99 100 97 98 100 91 100 36 16 16
20 28 40 45 63 66 42 23 27 25 22 26 30 28 27 28 28 40 75 81 67 44 41 87 100 99 100 100 100 100 100 100 98 99 100 96 100 100 87 47 30 18 23
24 35 47 59 77 68 31 24 29 23 23 30 29 28 29 32 32 50 82 84 81 52 42 94 97 90 91 99 100 98 97 100 100 100 100 98 100 76 62 48 30 20 31
28 40 52 73 78 53 25 25 28 23 27 28 28 28 29 33 37 59 84 89 85 49 41 92 96 91 95 100 100 100 99 92 100 99 100 100 100 97 62 44 30 25 43

GFSMA_700_rhum_027.txt.gz
RH
72 71 74 89 98 99 95 82 67 74 58 35 30 28 26 27 27 24 22 18 16 15 16 16 14 14 16 17 19 19 17 19 27 27 26 32 37 29 22 26 39 37 33
83 81 94 95 100 90 75 59 43 48 41 39 36 36 31 28 22 17 15 15 14 14 13 13 13 14 15 15 12 14 17 15 17 23 29 26 27 32 29 27 24 36 40
67 93 100 100 91 60 47 41 39 43 42 42 33 28 22 20 16 14 14 12 12 12 11 10 10 11 17 18 14 11 13 16 15 16 24 32 28 28 31 28 39 34 31
88 100 96 65 47 44 42 42 45 37 31 25 23 20 18 15 14 12 10 8 12 8 8 6 6 6 7 10 13 13 14 17 20 17 16 21 36 30 30 30 28 33 41
78 63 46 42 44 44 43 34 31 27 23 24 22 19 18 14 12 9 8 9 25 30 29 16 14 8 6 4 4 8 14 14 23 27 22 20 20 38 35 31 29 29 29
45 43 40 43 46 40 34 30 28 28 27 22 19 17 14 11 6 6 11 36 53 33 38 27 16 19 24 8 9 14 9 9 10 18 31 31 28 24 37 41 34 30 29
45 46 45 42 38 33 30 33 31 27 21 16 12 10 8 5 6 13 69 76 39 34 40 34 40 50 24 35 29 25 22 24 21 18 18 22 32 34 28 37 46 38 33
54 51 45 39 36 33 29 25 21 17 12 7 5 4 5 6 10 52 63 60 72 79 92 91 55 49 62 43 43 32 33 23 24 25 24 21 18 20 33 32 40 49 41
64 57 44 43 36 29 23 17 12 8 6 4 4 6 12 29 24 34 41 60 83 95 98 92 94 89 83 85 63 74 47 31 25 22 20 20 19 17 16 23 29 42 52
76 52 44 39 28 20 14 10 7 5 4 4 5 14 37 56 77 62 93 90 94 92 92 84 100 97 91 60 97 66 34 30 29 20 18 16 15 15 17 16 18 22 39
58 51 37 30 19 14 10 7 6 5 4 5 6 39 71 93 94 100 99 100 92 92 98 100 96 93 90 96 100 99 98 26 8 7 9 11 14 13 12 14 15 16 17
49 38 28 17 14 10 7 6 5 5 8 10 27 98 100 100 99 100 98 100 96 88 100 94 91 89 90 91 91 100 99 62 14 9 8 6 9 17 14 11 12 13 14
42 29 19 14 10 7 6 6 7 63 21 80 95 99 89 88 100 98 98 100 98 82 75 96 98 97 96 99 94 96 90 68 32 14 11 9 6 10 42 32 15 16 15
32 21 16 12 9 6 6 6 11 44 87 74 81 98 98 100 100 100 98 99 85 70 75 98 100 98 95 99 92 89 76 44 18 15 11 10 10 9 39 84 45 34 32
21 16 13 10 7 6 7 9 57 74 83 60 91 97 87 70 94 100 100 100 96 80 72 88 100 100 100 100 97 86 77 51 39 34 28 21 12 13 24 68 88 65 58
17 13 10 8 7 7 8 18 32 28 91 87 98 100 74 83 98 100 100 98 100 92 84 96 99 100 100 99 98 84 63 53 47 43 42 37 30 19 14 20 59 80 73
15 12 9 7 7 9 12 14 17 32 59 91 90 76 93 97 93 99 99 97 100 100 98 49 65 67 85 79 76 72 70 61 56 56 54 51 41 37 24 15 17 52 80
14 10 7 7 8 12 11 12 16 30 90 99 100 93 99 98 93 67 28 36 31 30 46 47 26 61 73 75 73 71 69 93 80 60 72 98 80 68 48 27 16 16 68
12 9 8 8 10 14 17 16 25 39 58 79 100 94 88 73 20 20 28 28 27 26 27 43 59 75 77 77 74 85 100 100 100 100 99 100 96 100 100 75 31 17 52
10 8 9 10 13 19 21 27 39 56 100 96 92 76 31 19 20 28 28 26 26 26 41 73 80 78 76 85 100 100 98 97 100 100 100 99 100 96 95 80 53 25 28
8 8 10 14 16 22 19 40 54 57 46 48 29 22 21 23 29 25 24 23 26 40 73 81 64 25 41 97 100 100 98 99 91 98 98 90 96 100 96 99 68 35 20
8 11 14 19 22 28 25 44 60 42 25 24 24 23 26 31 26 25 24 23 35 74 77 60 39 42 81 100 100 99 98 97 91 92 99 96 98 100 98 95 99 100 65
11 14 19 21 28 33 34 59 62 31 23 26 24 24 29 28 26 27 28 30 56 81 76 70 44 53 99 100 100 94 98 99 96 94 98 89 100 99 100 93 89 78 79
16 20 26 26 34 38 45 66 52 24 25 26 23 27 27 27 26 29 29 33 67 84 83 58 40 77 92 90 86 92 98 96 97 95 90 87 86 91 92 86 82 62 42
20 24 27 30 37 53 56 70 33 22 26 25 27 28 26 26 26 29 30 38 67 82 65 40 46 87 87 87 92 92 100 100 100 97 100 99 88 92 91 82 66 47 35
22 25 30 42 50 74 65 57 25 22 26 25 28 29 23 23 23 27 32 41 62 82 76 38 61 87 85 88 100 99 100 100 100 88 99 100 100 99 90 77 65 45 33

GFSMA_700_rhum_030.txt.gz
RH
60 69 76 89 75 72 95 98 68 48 41 40 39 34 31 26 23 22 20 19 18 17 16 15 14 13 13 12 13 16 21 21 19 20 17 16 19 24 25 30 31 21 22
69 73 82 90 99 87 92 45 41 42 36 35 30 28 26 26 26 25 22 20 17 15 15 14 13 12 12 11 10 11 14 18 18 19 23 19 16 16 19 23 27 29 25
82 78 78 75 100 68 40 38 39 35 33 31 29 29 29 29 27 22 18 16 12 10 10 12 11 11 10 9 8 8 8 10 13 17 22 30 23 18 19 18 24 28 28
75 83 85 78 42 34 37 39 38 37 34 30 28 30 28 25 21 17 14 12 9 13 16 20 16 11 10 10 9 8 7 6 6 10 16 17 33 31 21 21 19 23 28
87 64 50 38 37 40 42 43 41 38 32 30 28 26 22 19 16 13 11 9 15 33 43 36 24 23 18 10 8 8 8 7 5 5 5 10 18 32 38 29 22 27 28
50 43 36 38 42 46 49 47 43 36 30 26 22 19 16 15 13 10 8 12 18 27 45 46 50 33 27 32 18 20 17 12 12 9 7 5 6 16 37 41 38 31 32
40 42 45 46 48 53 50 47 35 29 24 20 17 15 13 11 8 7 7 8 21 45 67 80 71 59 55 31 58 53 34 27 50 28 26 21 14 14 17 27 38 38 33
50 55 57 62 63 53 50 36 29 23 19 15 12 11 8 7 6 6 10 18 34 63 80 96 94 89 96 79 63 47 48 46 45 36 29 27 25 23 22 22 22 29 38
67 67 66 59 53 48 36 27 21 17 14 11 7 6 5 6 5 7 11 16 16 22 38 58 94 90 93 82 79 53 46 48 48 36 36 33 31 27 24 24 23 21 22
83 76 66 56 48 38 26 20 16 13 9 6 5 5 5 6 9 10 29 26 33 40 46 58 79 96 94 88 72 60 50 55 44 22 19 18 18 25 24 31 20 19 19
86 71 63 53 40 26 21 18 14 9 7 5 5 7 15 28 42 47 41 30 26 40 40 70 84 88 87 84 65 79 87 63 40 40 24 18 13 8 10 12 32 23 15
85 68 56 41 26 22 18 12 8 6 5 6 23 43 79 82 90 92 72 62 67 52 55 58 67 70 69 63 72 78 85 85 81 63 34 14 14 12 9 7 8 26 15
72 58 44 28 24 21 15 9 6 5 7 19 58 76 81 81 100 97 86 65 68 64 68 68 65 66 59 67 69 88 82 70 67 56 33 20 11 10 11 10 8 9 12
68 48 32 26 23 17 11 6 6 6 8 29 56 62 90 96 97 98 97 75 74 73 70 67 56 60 66 59 75 63 46 38 45 48 43 38 37 22 11 9 10 9 12
50 35 27 25 20 13 7 6 7 7 10 33 82 81 95 98 96 94 74 97 100 93 72 60 26 49 63 57 41 31 35 48 51 52 48 45 41 36 28 21 11 10 13
42 29 28 24 16 9 6 6 8 9 13 15 54 76 100 98 95 88 85 89 96 98 72 24 24 29 28 24 21 39 53 59 58 55 53 49 46 42 37 32 26 16 12
30 28 28 20 10 7 7 8 9 12 13 13 21 46 99 99 97 89 85 87 66 24 24 23 24 23 20 22 39 60 64 60 57 55 51 49 49 47 43 40 37 30 19
20 27 28 14 8 7 9 11 11 13 16 21 37 68 95 96 81 90 73 22 19 25 30 25 19 20 23 46 68 66 60 61 59 57 58 56 72 65 62 60 80 61 36
26 45 22 10 8 8 12 14 17 19 24 35 50 60 60 62 57 20 16 18 24 23 22 22 21 24 55 74 60 29 47 69 80 87 86 85 95 100 100 100 91 95 81
65 24 11 8 9 12 17 20 28 27 36 46 52 40 26 19 17 15 20 24 23 23 24 24 29 60 70 52 33 49 71 81 86 81 80 85 80 88 93 100 93 100 98
22 38 8 9 15 18 19 22 29 36 52 55 42 24 20 19 18 19 24 22 22 25 24 32 63 72 69 51 44 80 91 84 82 89 89 78 96 100 92 97 98 98 92
87 15 11 16 18 20 21 28 38 53 63 54 33 21 21 21 24 22 22 21 24 26 32 62 76 76 60 38 70 92 98 96 83 76 91 68 94 84 89 100 100 100 100
34 12 14 16 21 24 27 33 44 60 64 46 23 21 20 25 25 24 24 27 28 33 48 72 77 57 38 60 92 83 78 80 83 78 83 71 78 82 100 100 91 84 94
17 17 20 21 22 26 30 39 50 68 65 35 21 22 21 26 24 23 22 22 26 34 53 80 81 50 42 86 86 84 88 84 87 93 100 81 84 77 81 86 93 92 79
23 19 20 23 30 32 34 46 59 74 58 25 22 21 23 27 24 23 22 21 24 35 52 76 83 52 64 86 87 91 93 92 90 92 100 86 100 90 84 71 74 64 68
19 21 22 34 41 38 46 56 71 79 40 22 23 24 26 26 23 22 20 21 23 33 47 67 81 49 76 83 84 97 100 98 100 88 100 92 96 100 85 81 98 90 54